Location: Denia
(38.8500°N, 0.1170°E)
Time: 01:40:36
(UTC+01:00)

Envisat - Pass Details

Date: 24 January 2020
Orbit: 764 x 766 km, 98.1° (Epoch: 20 February)

Event Time Altitude Azimuth Distance (km) Brightness Sun altitude
Rises 19:02:44 0° 173° (S) 3,217 6.4 -10.3°
Reaches altitude 10° 19:05:03 10° 176° (S) 2,295 5.6 -10.7°
Maximum altitude 19:10:05 67° 259° (W) 829 3.4 -11.6°
Drops below altitude 10° 19:15:09 10° 342° (NNW) 2,310 5.5 -12.6°
Sets 19:17:29 0° 345° (NNW) 3,240 6.3 -13.0°
